This demonstration page uses our WeatherBlox Daily Observations layout. Learn more.

Left ArrowRight Arrow

36.19886, -115.1175

Hourly Observations for August 25, 2021

Temp ( °F °C ) Dew Point ( °F °C ) Humidity (%) Winds ( mph kmh ) Pressure ( in mb ) Visibility ( mi km ) Precip ( " mm )
12:53 am 00:53 Clear with Smoke 86 30 32 0 14 14 Calm 29.86 1011 10 16 0.00 0.00
1:53 am 01:53 Clear with Smoke 83 28.3 32 0 16 16 Calm 29.86 1011 10 16 0.00 0.00
2:53 am 02:53 Clear with Smoke 79 26.1 33 0.6 19 19 NNW 7 11 29.87 1011 10 16 0.00 0.00
3:53 am 03:53 Clear with Smoke 78 25.6 35 1.7 21 21 NNW 3 6 29.87 1012 10 16 0.00 0.00
4:53 am 04:53 Clear with Smoke 79 26.1 35 1.7 20 20 W 6 9 29.88 1012 10 16 0.00 0.00
5:53 am 05:53 Clear with Smoke 76 24.4 34 1.1 22 22 NW 6 9 29.89 1012 10 16 0.00 0.00
6:53 am 06:53 Sunny with Smoke 78 25.6 36 2.2 22 22 Calm 29.91 1013 10 16 0.00 0.00
7:53 am 07:53 Sunny with Smoke 86 30 32 0 14 14 SSE 3 6 29.92 1013 10 16 0.00 0.00
8:53 am 08:53 Sunny with Smoke 89 31.7 30 -1.1 12 12 SE 5 7 29.92 1013 10 16 0.00 0.00
9:53 am 09:53 Sunny with Smoke 91 32.8 31 -0.6 12 12 SE 5 7 29.93 1013 10 16 0.00 0.00
10:53 am 10:53 Sunny with Smoke 94 34.4 32 0 11 11 SSE 6 9 29.92 1013 10 16 0.00 0.00
11:53 am 11:53 Sunny with Smoke 99 37.2 28 -2.2 8 8 SSE 8 13 29.90 1013 10 16 0.00 0.00
12:53 pm 12:53 Sunny with Smoke 101 38.3 27 -2.8 7 7 S 7 11 29.87 1012 10 16 0.00 0.00
1:53 pm 13:53 Sunny with Smoke 104 40 32 0 8 8 VRB 6 9 29.84 1010 10 16 0.00 0.00
2:16 pm 14:16 Sunny with Smoke 105 40.6 34 1.1 8 8 undefined N/A 29.65 1004 10 16 0.00 0.00
2:53 pm 14:53 Sunny with Smoke 105 40.6 39 3.9 10 10 S 16 26 29.82 1010 10 16 0.00 0.00
3:53 pm 15:53 Sunny with Smoke 106 41.1 38 3.3 10 10 W 15 24 29.80 1009 10 16 0.00 0.00
4:53 pm 16:53 Sunny with Smoke 105 40.6 35 1.7 9 9 WSW 15 24 29.79 1009 10 16 0.00 0.00
5:53 pm 17:53 Sunny with Smoke 104 40 37 2.8 10 10 W 13 20 29.78 1008 10 16 0.00 0.00
6:02 pm 18:02 Sunny with Smoke 104 40 38 3.3 10 10 SW 9 15 29.60 1002 10 16 0.00 0.00
6:53 pm 18:53 Sunny 102 38.9 41 5 12 12 WSW 12 19 29.77 1008 10 16 0.00 0.00
7:53 pm 19:53 Clear 100 37.8 43 6.1 14 14 SW 9 15 29.78 1009 10 16 0.00 0.00
8:53 pm 20:53 Clear 98 36.7 40 4.4 13 13 SW 7 11 29.80 1009 10 16 0.00 0.00
9:53 pm 21:53 Clear 94 34.4 42 5.6 17 17 S 8 13 29.80 1009 10 16 0.00 0.00
10:53 pm 22:53 Clear 97 36.1 39 3.9 13 13 S 10 17 29.80 1009 10 16 0.00 0.00
11:53 pm 23:53 Clear 94 34.4 40 4.4 15 15 SSW 10 17 29.80 1009 10 16 0.00 0.00

Powered by AerisWeather